Regional Weather Roundup
Issued by NWS Midland/Odessa, TX

Skip options and go directly to product.
Home | Oldest Version | Previous Version | Current Version | All | Text Only | Save Text | Print | Product List | Glossary Off

Skip product version selection by date and time.   

281
ASUS44 KMAF 270110
RWRMAF
MIDLAND AREA WEATHER ROUNDUP
NATIONAL WEATHER SERVICE MIDLAND TX
700 PM CST WED NOV 26 2014

...IN SOUTHWEST TEXAS AND SOUTHEAST NEW MEXICO...

CITY           SKY/WX    TMP DP  RH WIND       PRES   REMARKS
ALPINE         PTCLDY    55  20  25 SE6       30.36R
ANDREWS        FAIR      46  28  50 E6        30.30R
ARTESIA        NOT AVBL
BIG SPRING     CLEAR     51  33  50 NE6       30.33R
CARLSBAD       CLEAR     47  27  45 S5        30.24R
DRYDEN           N/A     58  23  26 N7        30.24R
FORT STOCKTON  PTCLDY    55  22  27 E7        30.27R
GUAD PASS      CLEAR     54  21  27 VRB5      30.34R
HOBBS          CLEAR     45  28  53 E8        30.29R
MARFA          PTCLDY    45  18  33 CALM      30.33R
MIDLAND AIRPK  CLEAR     53  32  44 NE3       30.31R HAZE
MIDLAND INTL   CLEAR     51  30  44 E6        30.29R
ODESSA         CLEAR     48  27  44 E9        30.30R
PECOS          CLEAR     55  24  30 E8        30.25R
PRESIDIO       FAIR      58  23  25 CALM      30.26R
SEMINOLE       CLEAR     48  28  46 E5        30.31R
SNYDER         CLEAR     50  33  52 NE6       30.32R
WINK           PTCLDY    55  23  28 E9        30.25R
$$
...OTHER STATIONS IN TEXAS...

CITY           SKY/WX    TMP DP  RH WIND       PRES   REMARKS
ABILENE        CLEAR     50  35  56 N6        30.32R
AMARILLO       PTCLDY    38  23  55 SE5       30.31S WCI  34
AUSTIN         PTCLDY    62  38  40 NE9       30.24R
BROWNSVILLE    CLEAR     59  50  72 SE3       30.27R
CORPUS CHRISTI PTCLDY    59  49  69 SE9       30.24R
DALLAS FTW     PTCLDY    55  34  45 NW8       30.27R
DEL RIO        CLEAR     63  32  31 SE3       30.21R
EL PASO        CLEAR     58  19  22 SW5       30.26S
HOUSTON INT    PTCLDY    57  42  57 SW3       30.24R
LUBBOCK        PTCLDY    43  26  51 NE9       30.31R WCI  38
SAN ANGELO     PTCLDY    50  33  52 E7        30.29R
SAN ANTONIO    PTCLDY    66  33  29 S3        30.23R
WACO           CLEAR     51  34  52 NW3       30.27R
WICHITA FALLS  NOT AVBL
$$
...OTHER LOCATIONS IN NEW MEXICO...

CITY           SKY/WX    TMP DP  RH WIND       PRES   REMARKS
ALAMAGORDO     CLEAR     55  19  24 MISG      30.27R
ALBUQUERQUE    PTCLDY    56  23  27 N8        30.34R
CANNON AFB     PTCLDY    41  27  56 E8        30.30R WCI  36
CLOVIS         PTCLDY    39  25  56 SE8       30.30R WCI  34
HOLLOMAN AFB   CLEAR     53  21  28 NW10      30.26S
ROSWELL        CLEAR     50  25  37 S6        30.25R
RUIDOSO        PTCLDY    48  21  34 W15       30.38S
SANTA FE       PTCLDY    42  18  37 N7        30.34R WCI  38
TRUTH OR CONSE CLEAR     57  21  24 CALM      30.30R
TUCUMCARI      PTCLDY    39  27  62 E7        30.27R WCI  34
$$

USA.gov is the U.S. government's official web portal to all federal, state and local government web resources and services.